Location: Hanover
(39.8010°N, 76.9830°W)
Time: 00:14:35
(UTC-04:00)

Envisat - Visible Passes

Search period start: 10 June 2023 00:00
Search period end: 20 June 2023 00:00
Orbit: 763 x 765 km, 98.2° (Epoch: 09 June)

Date Brightness Start Highest point End Pass type
(mag) Time Alt. Az. Time Alt. Az. Time Alt. Az.
10 Jun 4.9 04:09:45 10° NE 04:14:01 27° E 04:18:17 10° SSE visible
11 Jun 5.7 03:34:52 10° ENE 03:36:31 11° E 03:38:10 10° ESE visible
12 Jun 4.0 04:33:58 10° NNE 04:38:52 47° E 04:43:44 10° S visible
13 Jun 5.2 03:57:44 10° NE 04:01:30 21° E 04:05:15 10° SE visible
14 Jun 3.1 04:58:30 10° NNE 05:03:37 83° ESE 05:08:41 10° SSW visible
15 Jun 4.4 04:21:43 10° NNE 04:26:22 36° E 04:30:59 10° SSE visible
16 Jun 5.5 03:45:55 10° NE 03:48:56 16° E 03:51:57 10° SE visible
17 Jun 3.5 04:46:07 10° NNE 04:51:10 63° ESE 04:56:10 10° S visible
18 Jun 4.8 04:09:32 10° NE 04:13:51 27° E 04:18:07 10° SSE visible
19 Jun 5.7 03:34:35 10° ENE 03:36:20 12° E 03:38:05 10° ESE visible
